TITAN 3C TRANSTAGE DEB, 59979

Orbit data source: Space-Track

TITAN 3C TRANSTAGE DEB, 59979 is space debris in GEO originally from a launch on Thu, 26 Sep 1968 UTC launched from the Air Force Eastern Test Range (AFETR). Debris objects in space refer to the collection of defunct objects orbiting the Earth. Examples of debris include non-operational satellites, rocket bodies, and fragments generated from explosions, collisions, or faulty payload assembly.

Loading next visibility...
Identifier
59979, 1968-081AM
Orbit
GEO
Country
Flag of USUS
Related business
Manufacturer
Unknown
Mission
Spacecraft
Bus & Motor
Unknown
Mass
Unknown
Launch date (UTC)
1968-09-26 (58 years ago)
Launch vehicle
Unknown
Launch site
Air Force Eastern Test Range (AFETR)
Object type
Payload
Rocket body
Debris
Shape & HBR
Unknown shape, 1.1 m
Radar Cross Section
RCS unknown

Expand to show TLE details & history
Last TLE update: 2 months ago

TLE from 2 months ago
0 TITAN 3C TRANSTAGE DEB
1 59979U 68081AM  26183.94552143 -.00000004  00000-0  00000-0 0  9990
2 59979   2.6887  67.0554 0045930 150.1136 209.8689  1.03315813 61247
Epoch: 2026-07-02T22:41Z
TLE epoch observation values (Epoch: 2026-07-02T22:41:33.051Z)
Latitude
0.00001°
Longitude
165.41542°
Altitude
35,118.357 km
Speed
3.093 km/s
True Right ascension
04h 27m 08s
True Declination
0° 00' 00"
Sunlit
Object was in daylight at epoch
Visualization orbit readout
Latitude
Unknown
Longitude
Unknown
Altitude
Unknown
Speed
Unknown
Apparent Right ascension
Unknown
Apparent Declination
Unknown
Sunlit
N/A
Visualization observer readout
Local Sidereal Time
04:10:33
Azimuth
Unknown
Elevation
Unknown
Doppler factor
Unknown
Orbital elements
Apogee altitude
35,145.197 km
Perigee altitude
34,765.508 km
Semi-major axis
41,333.489 km
Eccentricity
0.00459
Inclination
2.6887°
RAAN
67.0554°
Arg. of periapsis
150.1136°
True anomaly
209.60808°
Mean anomaly
209.8689°
Eccentric anomaly
209.73836°
Mean motion
0.25828 °/min
Orbital period
1,393.84 mins
BSTAR
0
Loading maneuver chart data...
Computing Atmospheric mass density...

Documentation

Showing up to 5 results
|